Flag for Canada Weather past 2 weeks in Owen Sound, Ontario, Canada

Now
66 °F

Broken clouds.


Feels Like: 66 °F
Forecast: 61 / 71 °F
Wind: 6 mph from Southwest

Location: Wiarton

Current Time: Jul 25, 2014 at 10:13:44 PM

Latest Report: Jul 25, 2014 at 9:00 PM


Visibility: 15 mi

Pressure: 29.92 "Hg

Humidity: 68%

Dew point: 55 °F

Location of Owen SoundLocation

Historic Weather in Owen Sound — Graph

°F

Owen Sound temperature yesterday

Maximum temperature yesterday: 68 °F (at 11:00 AM)
Minimum temperature yesterday: 46 °F (at 5:00 AM)
Average temperature yesterday: 59 °F

Past Weeks' High & Low Weather Summary

 TemperatureHumidityPressure
High81 °F (Jul 22, 11:00 AM)100% (Jul 11, 12:00 AM)30.26 "Hg (Jul 11, 12:00 AM)
Low43 °F (Jul 11, 5:00 AM)36% (Jul 14, 4:00 PM)29.62 "Hg (Jul 15, 10:00 AM)
Average63 °F78%30.01 "Hg
* Reported Jul 10 9:00 PM — Jul 25 9:00 PM, Owen Sound, Weather by CustomWeather, © 2014

Note: Actual official high and low records may vary slightly from our data, if they occured in-between our weather recording intervals... More about our weather records

Advertising

Owen Sound weather history for previous 24 hours

 ConditionsComfort  
Time TempWeatherWind HumidityBarometerVisibility
9:00 PM
Jul 25
66 °FBroken clouds.6 mph68%29.92 "Hg15 mi
8:00 PM70 °FPartly sunny.8 mph57%29.92 "Hg15 mi
7:00 PM72 °FPartly sunny.14 mph50%29.93 "Hg15 mi
6:00 PM72 °FPartly sunny.10 mph50%29.94 "Hg15 mi
5:00 PM72 °FPartly sunny.14 mph50%29.95 "Hg15 mi
4:00 PM73 °FPartly sunny.14 mph47%29.96 "Hg15 mi
3:00 PM72 °FPartly sunny.16 mph53%29.98 "Hg15 mi
2:00 PM72 °FPartly sunny.10 mph53%29.99 "Hg15 mi
1:00 PM70 °FScattered clouds.9 mph60%29.99 "Hg15 mi
12:00 PM70 °FPassing clouds.12 mph69%30.01 "Hg15 mi
11:00 AM70 °FPassing clouds.16 mph60%30.03 "Hg15 mi
10:00 AM66 °FPassing clouds.10 mph68%30.04 "Hg15 mi
9:00 AM63 °FPassing clouds.10 mph83%30.03 "Hg15 mi
8:00 AM57 °FPassing clouds.6 mph94%30.04 "Hg15 mi
7:00 AM52 °FPassing clouds.6 mph100%30.05 "Hg15 mi
6:00 AM52 °FHigh level clouds.6 mph100%30.04 "Hg15 mi
5:00 AM50 °FHigh level clouds.5 mph100%30.02 "Hg15 mi
4:00 AM50 °FHigh level clouds.3 mph100%30.03 "Hg15 mi
3:00 AM50 °FHigh level clouds.5 mph94%30.02 "Hg15 mi
2:00 AM50 °FPassing clouds.3 mph100%30.03 "Hg15 mi
1:00 AM50 °FPassing clouds.3 mph100%30.04 "Hg15 mi
12:00 AM52 °FPassing clouds.2 mph94%30.05 "Hg15 mi
11:00 PM
Jul 24
52 °FPassing clouds.3 mph94%30.05 "Hg15 mi
10:00 PM57 °FPassing clouds.3 mph82%30.05 "Hg15 mi
Weather by CustomWeather, © 2014

See weather overviewHow to use our weather pages